EW8450 Weather Reports


Display with metric or nautical units.
time (UTC)temp
F
wind
direction
speed
MPH
gust
MPH
rain 1hr
in
rain 24hr
in
rain mn
in
humidity
%
barometer
mb
20260505022452 76 335 0.0 3.0 0.00 0.00 0.00 45 1008.2
20260505021701 77 0 0.0 3.0 0.00 0.00 0.00 43 1008.2
20260505021201 77 0 0.0 3.0 0.00 0.00 0.00 42 1008.2
20260505020954 77 0 0.0 0.0 0.00 0.00 0.00 42 1008.2
20260505020201 77 0 0.0 2.0 0.00 0.00 0.00 41 1008.2
20260505015700 78 0 0.0 2.0 0.00 0.00 0.00 41 1008.2
20260505015200 78 0 0.0 3.0 0.00 0.00 0.00 38 1008.2
20260505014700 78 315 0.0 4.0 0.00 0.00 0.00 39 1008.2
20260505014201 78 0 0.0 4.0 0.00 0.00 0.00 37 1008.2
20260505013701 78 0 1.0 4.0 0.00 0.00 0.00 37 1008.2
20260505013200 78 0 1.0 4.0 0.00 0.00 0.00 36 1008.2
20260505012701 79 0 0.0 3.0 0.00 0.00 0.00 36 1008.3
20260505012200 79 0 0.0 4.0 0.00 0.00 0.00 36 1008.3
20260505011952 79 0 1.0 4.0 0.00 0.00 0.00 35 1008.3
20260505011201 79 0 1.0 5.0 0.00 0.00 0.00 36 1008.3
20260505010952 79 326 2.0 5.0 0.00 0.00 0.00 35 1008.4
20260505010450 80 343 2.0 6.0 0.00 0.00 0.00 35 1008.4
20260505005701 80 0 2.0 6.0 0.00 0.00 0.00 36 1008.4
20260505005201 80 0 1.0 4.0 0.00 0.00 0.00 35 1008.4
20260505004700 80 317 1.0 4.0 0.00 0.00 0.00 37 1008.4
20260505004451 80 179 2.0 5.0 0.00 0.00 0.00 36 1008.4
20260505003702 80 0 2.0 5.0 0.00 0.00 0.00 36 1008.4
20260505003203 80 342 1.0 5.0 0.00 0.00 0.00 34 1008.4
20260505002951 80 336 1.0 5.0 0.00 0.00 0.00 34 1008.4
20260505002202 80 0 1.0 4.0 0.00 0.00 0.00 35 1008.4
20260505001952 80 0 1.0 4.0 0.00 0.00 0.00 34 1008.5
20260505001201 80 144 1.0 4.0 0.00 0.00 0.00 35 1008.5
20260505000701 80 0 1.0 4.0 0.00 0.00 0.00 35 1008.4
20260505000201 80 330 2.0 4.0 0.00 0.00 0.00 34 1008.5
20260504235701 80 322 1.0 3.0 0.00 0.00 0.00 34 1008.6
20260504235200 80 318 1.0 4.0 0.00 0.00 0.00 35 1008.6
20260504234700 80 0 1.0 4.0 0.00 0.00 0.00 36 1008.6
20260504234201 79 0 2.0 7.0 0.00 0.00 0.00 35 1008.6
20260504233701 79 0 2.0 7.0 0.00 0.00 0.00 36 1008.6
20260504233201 80 334 2.0 6.0 0.00 0.00 0.00 36 1008.6
20260504232701 80 0 2.0 6.0 0.00 0.00 0.00 35 1008.6
20260504232200 80 335 2.0 6.0 0.00 0.00 0.00 36 1008.6
20260504231702 80 0 2.0 4.0 0.00 0.00 0.00 35 1008.6
20260504231201 80 312 2.0 4.0 0.00 0.00 0.00 36 1008.6
20260504230701 80 0 2.0 7.0 0.00 0.00 0.00 37 1008.6
20260504230200 80 0 1.0 7.0 0.00 0.00 0.00 37 1008.7
20260504225701 79 323 1.0 5.0 0.00 0.00 0.00 37 1008.8
20260504225201 79 291 2.0 5.0 0.00 0.00 0.00 37 1008.8
20260504224734 80 344 2.0 5.0 0.00 0.00 0.00 37 1008.9
20260504223703 79 199 2.0 6.0 0.00 0.00 0.00 39 1008.9
20260504223203 79 342 2.0 7.0 0.00 0.00 0.00 39 1009.1
20260504222948 79 340 3.0 7.0 0.00 0.00 0.00 38 1009.2
20260504222200 79 342 3.0 8.0 0.00 0.00 0.00 38 1009.1
20260504221701 79 336 2.0 8.0 0.00 0.00 0.00 38 1009.2
20260504221201 79 336 2.0 6.0 0.00 0.00 0.00 38 1009.2
20260504220701 78 0 2.0 5.0 0.00 0.00 0.00 38 1009.3
20260504220201 78 320 3.0 6.0 0.00 0.00 0.00 37 1009.3
20260504215700 78 329 3.0 6.0 0.00 0.00 0.00 38 1009.3
20260504215201 79 337 2.0 5.0 0.00 0.00 0.00 36 1009.4
20260504214701 78 328 3.0 6.0 0.00 0.00 0.00 36 1009.4
20260504214448 79 330 3.0 6.0 0.00 0.00 0.00 36 1009.3
20260504213701 79 341 3.0 6.0 0.00 0.00 0.00 36 1009.4
20260504213200 79 62 2.0 6.0 0.00 0.00 0.00 36 1009.3
20260504212701 78 305 3.0 7.0 0.00 0.00 0.00 38 1009.3
20260504212448 78 309 3.0 7.0 0.00 0.00 0.00 37 1009.3
20260504211701 78 330 3.0 5.0 0.00 0.00 0.00 37 1009.3
20260504211201 78 324 2.0 7.0 0.00 0.00 0.00 37 1009.3
20260504210701 78 319 2.0 7.0 0.00 0.00 0.00 38 1009.3
20260504210201 78 338 2.0 5.0 0.00 0.00 0.00 39 1009.4
20260504205702 78 327 2.0 5.0 0.00 0.00 0.00 38 1009.4
20260504205203 78 0 2.0 6.0 0.00 0.00 0.00 38 1009.6
20260504204703 78 0 2.0 7.0 0.00 0.00 0.00 39 1009.6
20260504204203 78 337 3.0 7.0 0.00 0.00 0.00 39 1009.6
20260504203702 78 332 2.0 6.0 0.00 0.00 0.00 39 1009.6
20260504203449 77 337 3.0 6.0 0.00 0.00 0.00 41 1009.5
20260504202948 77 344 3.0 6.0 0.00 0.00 0.00 41 1009.5
20260504202201 77 300 2.0 6.0 0.00 0.00 0.00 41 1009.5
20260504201701 77 334 2.0 6.0 0.00 0.00 0.00 41 1009.5
20260504201201 77 347 3.0 6.0 0.00 0.00 0.00 42 1009.5
20260504200700 77 309 2.0 4.0 0.00 0.00 0.00 42 1009.5
20260504200201 76 314 2.0 5.0 0.00 0.00 0.00 43 1009.5
20260504195701 76 0 1.0 5.0 0.00 0.00 0.00 43 1009.5
20260504195201 76 310 2.0 5.0 0.00 0.00 0.00 41 1009.5
20260504194701 76 340 1.0 5.0 0.00 0.00 0.00 41 1009.6
20260504194201 76 331 1.0 4.0 0.00 0.00 0.00 43 1009.6
20260504193700 75 313 2.0 4.0 0.00 0.00 0.00 43 1009.8
20260504193200 75 327 2.0 4.0 0.00 0.00 0.00 42 1009.8
20260504192659 75 0 1.0 4.0 0.00 0.00 0.00 42 1009.8
20260504192231 74 302 1.0 4.0 0.00 0.00 0.00 43 1009.8
20260504191200 74 301 2.0 6.0 0.00 0.00 0.00 41 1009.8
20260504190700 73 0 1.0 5.0 0.00 0.00 0.00 43 1009.9
20260504190446 73 0 1.0 3.0 0.00 0.00 0.00 42 1009.9
20260504185700 73 315 1.0 4.0 0.00 0.00 0.00 44 1009.9
20260504185200 73 0 1.0 5.0 0.00 0.00 0.00 43 1010.0
20260504184700 73 0 1.0 5.0 0.00 0.00 0.00 43 1010.0
20260504184200 73 0 1.0 5.0 0.00 0.00 0.00 46 1010.0
20260504183657 72 177 0.0 5.0 0.00 0.00 0.00 45 1009.9
20260504183443 72 307 0.0 3.0 0.00 0.00 0.00 46 1010.0
20260504182657 72 0 0.0 3.0 0.00 0.00 0.00 46 1010.1
20260504182443 71 0 1.0 6.0 0.00 0.00 0.00 46 1010.0
20260504181938 71 0 1.0 6.0 0.00 0.00 0.00 47 1010.0
20260504181150 71 0 2.0 4.0 0.00 0.00 0.00 47 1010.1
20260504180651 71 331 1.0 4.0 0.00 0.00 0.00 48 1010.1
20260504180151 71 0 1.0 3.0 0.00 0.00 0.00 47 1010.1
20260504175650 71 277 1.0 4.0 0.00 0.00 0.00 49 1010.1
20260504175151 71 0 1.0 4.0 0.00 0.00 0.00 50 1010.1
20260504174940 70 0 1.0 4.0 0.00 0.00 0.00 50 1010.0
20260504174151 70 342 1.0 4.0 0.00 0.00 0.00 51 1010.1
20260504173651 70 0 2.0 5.0 0.00 0.00 0.00 51 1010.0
20260504173151 69 0 1.0 5.0 0.00 0.00 0.00 49 1009.9
20260504172650 69 337 0.0 3.0 0.00 0.00 0.00 50 1009.9
20260504172150 69 0 0.0 3.0 0.00 0.00 0.00 51 1010.0
20260504171940 69 0 0.0 3.0 0.00 0.00 0.00 52 1010.0
20260504171150 68 0 0.0 2.0 0.00 0.00 0.00 54 1010.0
20260504170650 68 0 1.0 3.0 0.00 0.00 0.00 57 1010.0
20260504170150 68 345 1.0 3.0 0.00 0.00 0.00 57 1010.0
20260504160147 61 0 0.0 1.0 0.00 0.00 0.00 68 1009.8
20260504151146 57 280 1.0 2.0 0.00 0.00 0.00 79 1009.5
20260504150647 56 280 1.0 2.0 0.00 0.00 0.00 81 1009.5
20260504150146 55 278 1.0 2.0 0.00 0.00 0.00 84 1009.4
20260504141144 51 0 0.0 0.0 0.00 0.00 0.00 95 1009.2
20260504140644 51 0 0.0 0.0 0.00 0.00 0.00 95 1009.2
20260504140144 51 0 0.0 0.0 0.00 0.00 0.00 95 1009.2
20260504130142 50 0 0.0 0.0 0.00 0.00 0.00 95 1008.7
20260504120147 51 0 0.0 0.0 0.00 0.00 0.00 94 1008.6
20260504110638 52 0 0.0 2.0 0.00 0.00 0.00 93 1008.7
20260504110138 52 0 0.0 0.0 0.00 0.00 0.00 93 1008.6
20260504100133 53 0 0.0 3.0 0.00 0.00 0.00 92 1008.5
20260504090128 54 0 0.0 0.0 0.00 0.00 0.00 91 1008.5
20260504081629 55 0 0.0 0.0 0.00 0.00 0.00 90 1008.5
20260504081129 55 0 0.0 0.0 0.00 0.00 0.00 87 1008.6
20260504080629 56 0 0.0 0.0 0.00 0.00 0.00 87 1008.6
20260504080129 56 0 0.0 0.0 0.00 0.00 0.00 86 1008.7
20260504070129 58 0 0.0 0.0 0.00 0.00 0.00 87 1008.8
20260504060129 60 0 0.0 0.0 0.00 0.00 0.00 81 1008.8
20260504050628 63 0 0.0 0.0 0.00 0.00 0.00 77 1008.8
20260504050421 63 0 0.0 0.0 0.00 0.00 0.00 78 1008.8
20260504045628 64 0 0.0 0.0 0.00 0.00 0.00 73 1008.8
20260504045128 64 0 0.0 0.0 0.00 0.00 0.00 73 1008.8
20260504044628 64 0 0.0 0.0 0.00 0.00 0.00 73 1008.8
20260504044128 64 0 0.0 0.0 0.00 0.00 0.00 72 1008.8
20260504043919 65 0 0.0 0.0 0.00 0.00 0.00 71 1008.8
20260504043129 65 0 0.0 0.0 0.00 0.00 0.00 69 1008.8
20260504042628 66 0 0.0 0.0 0.00 0.00 0.00 71 1008.8
20260504042128 66 0 0.0 0.0 0.00 0.00 0.00 67 1008.7
20260504041629 67 0 0.0 0.0 0.00 0.00 0.00 66 1008.6
20260504041129 67 0 0.0 0.0 0.00 0.00 0.00 65 1008.6
20260504040629 67 0 0.0 0.0 0.00 0.00 0.00 64 1008.6
20260504040129 68 0 0.0 0.0 0.00 0.00 0.00 63 1008.6
20260504035629 69 0 0.0 0.0 0.00 0.00 0.00 61 1008.6
20260504035129 69 0 0.0 0.0 0.00 0.00 0.00 60 1008.5
20260504034629 69 0 0.0 0.0 0.00 0.00 0.00 60 1008.4
20260504034128 70 0 0.0 0.0 0.00 0.00 0.00 60 1008.4
20260504033630 70 0 0.0 0.0 0.00 0.00 0.00 59 1008.4
20260504033129 71 0 0.0 0.0 0.00 0.00 0.00 58 1008.3
20260504032629 71 0 0.0 0.0 0.00 0.00 0.00 57 1008.3
20260504032129 72 0 0.0 0.0 0.00 0.00 0.00 57 1008.3
20260504031629 73 0 0.0 0.0 0.00 0.00 0.00 55 1008.3
20260504031128 74 0 0.0 0.0 0.00 0.00 0.00 53 1008.2
20260504030629 74 0 0.0 0.0 0.00 0.00 0.00 52 1008.2
20260504030129 74 0 0.0 0.0 0.00 0.00 0.00 50 1008.2
20260504025629 75 0 0.0 0.0 0.00 0.00 0.00 50 1008.2
20260504025129 76 0 0.0 3.0 0.00 0.00 0.00 49 1008.2
20260504024629 76 0 1.0 4.0 0.00 0.00 0.00 48 1008.1
20260504024129 77 338 1.0 4.0 0.00 0.00 0.00 47 1008.1
20260504023630 78 315 1.0 5.0 0.00 0.00 0.00 45 1008.1
20260504023129 78 0 1.0 5.0 0.00 0.00 0.00 43 1008.1
20260504022629 79 338 1.0 4.0 0.00 0.00 0.00 42 1008.1